Regional Weather Roundup
Issued by NWS Portland, ME

Current Version | Previous Version | Text Only | Print | Product List | Glossary Off
Versions: 1 2 3 4 5 6 7 8 9 10 11 12 13 14 15 16 17 18 19 20 21 22 23 24 25 26 27 28 29 30 31 32 33 34 35 36 37 38 39 40 41 42 43 44 45 46 47 48 49 50
000 ASUS41 KGYX 231305 RWRGYX WEATHER ROUNDUP FOR MAINE AND NEW HAMPSHIRE NATIONAL WEATHER SERVICE GRAY ME 800 AM EST WED JAN 23 2019 MEZ002-005-006-010-012-015-018-020-021-024-026-027-029-231400- MAINE CITY SKY/WX TMP DP RH WIND PRES REMARKS PORTLAND CLOUDY 26 10 50 S13 30.32F WCI 15 SANFORD FAIR 19 6 57 VRB6 30.31F BAR HARBOR CLOUDY 13 4 67 N3 30.36F WISCASSET CLOUDY 13 6 74 CALM 30.34F ROCKLAND CLOUDY 11 3 70 CALM 30.34F FRYEBURG FAIR 11 0 61 CALM 30.28F LEWISTONAUBURN CLOUDY 14 0 53 CALM 30.30F AUGUSTA CLOUDY 14 1 56 S7 30.30F WATERVILLE MOCLDY 14 -1 51 MISG 30.27F BANGOR CLOUDY 12 1 61 CALM 30.32F GREENVILLE N/A 9 -10 42 SE10 30.12F WCI -5 MILLINOCKET CLOUDY 5 -6 60 SE6 30.30F HOULTON CLOUDY 5 -6 60 CALM 30.28F PRESQUE ISLE CLOUDY 5 -5 63 SE9 30.26F FRENCHVILLE CLOUDY 4 -7 60 S6 30.19S CARIBOU CLOUDY 5 -5 63 S7 30.24F $$ NHZ002-005-008-009-011-012-014-231400- NEW HAMPSHIRE CITY SKY/WX TMP DP RH WIND PRES REMARKS PORTSMOUTH CLOUDY 21 7 53 S10 30.32F WCI 10 ROCHESTER CLOUDY 18 3 52 S7 30.30F NASHUA FAIR 22 11 62 CALM 30.33S MANCHESTER CLOUDY 22 9 57 S12 30.30F WCI 10 CONCORD CLOUDY 19 6 57 S7 30.30S LACONIA CLOUDY 15 1 53 CALM 30.28S PLYMOUTH MOCLDY 12 2 62 CALM 30.29S BERLIN CLOUDY 5 1 83 CALM 30.17F WHITEFIELD CLOUDY 8 3 80 CALM 30.17F JAFFREY MOCLDY 24 9 52 SW8 30.26S KEENE MOCLDY 19 8 62 NE3 30.31R LEBANON CLOUDY 19 6 57 S8 30.23F MT WASHINGTON LGT SNOW 18 14 86 W68G74 N/A BLWGSNOWWCI -9 $$ VTZ005-007-008-231400- VERMONT CITY SKY/WX TMP DP RH WIND PRES REMARKS ST JOHNSBURY N/A 7 2 80 MISG 30.20F MONTPELIER CLOUDY 17 2 51 W5 30.20S BURLINGTON CLOUDY 24 6 46 S14G29 30.17S WCI 12 $$ MAZ007-012-024-CTZ003-RIZ002-NYZ038-NYZ072-231400- SOUTHERN NEW ENGLAND AND NY CITY SKY/WX TMP DP RH WIND PRES REMARKS BOSTON CLOUDY 26 15 63 S12 30.37F WCI 16 WORCESTER FAIR 22 14 71 SW15 30.29S WCI 9 NANTUCKET FAIR 36 29 75 S13 30.40F PROVIDENCE MOCLDY 22 16 78 SW3 30.39S HARTFORD CLOUDY 20 15 81 CALM 30.35F ALBANY CLOUDY 26 9 48 S14G22 30.25F WCI 14 NEW YORK CITY MOCLDY 33 15 47 S10 30.36F $$ ANZ081-ANZ082-ANZ150-NHZ014-MEZ023>029-231400- COASTAL MARINE OBSERVATIONS STATION/POSITION TIME TEMP WIND PRES WAVE AIR SEA DIR/SP/G HT/PER (UTC) (F) (DEG/KT/KT) (MB) (FT/S) MOUNT DESERT ROC 1300 31 170/ 20/ 22 1028.2F MATINICUS ROCK 1200 31 210/ 18/ 21 1028.1F ISLE OF SHOALS 1200 29 200/ 24/ 27 1027.6F JEFFREYS LEDGE 1238 40 N/A 4/ 4 CASHES LEDGE BUO 1250 33 39 1028.7F 3/ 4 $$ .............KEY.............. WCI - WIND CHILL TC - TEMPERATURE IN CELSIUS VSB - VISIBILITY IN MILES HX - HEAT INDEX FAIR- INDICATES FEW OR NO CLOUDS BELOW 12,000 FT, WITH NO SIGNIFICANT WEATHER AND/OR OBSTRUCTIONS TO VISIBILITY.

USA.gov is the U.S. government's official web portal to all federal, state and local government web resources and services.